{"data":{"norad_id":64204,"intl_designator":"2025-117B","name":"STARLINK-34331","alt_names":[],"object_type":"PAYLOAD","status":"ACTIVE","operator":null,"country":"US","launch_date":"2025-05-31","launch_site_code":"AFWTR","launch_vehicle":null,"mission":null,"orbit_class":"UNKNOWN","rcs_meters":null,"size_class":null,"mass_kg":null,"dimensions":null,"purposes":["comms"],"wikipedia_slug":null,"has_3d_model":false,"image_url":null,"decayed_at":null,"tle_current":{"epoch":"2026-05-25T02:41:29.639904Z","epoch_age_seconds":61499,"freshness":"FRESH","line1":"1 64204U 25117B   26145.11214861  .00013878  00000+0  47974-3 0  9994","line2":"2 64204  53.1622  44.8175 0001206  97.6674 262.4464 15.30203965 56221","mean_motion":15.30203965,"eccentricity":0.0001206,"inclination_deg":53.1622,"raan_deg":44.8175,"arg_perigee_deg":97.6674,"mean_anomaly_deg":262.4464,"bstar":0.00047974,"rev_number":5622,"period_min":94.105101864639,"perigee_km":474.37671783776,"apogee_km":476.0297435014,"semimajor_km":6853.3402306696,"source":"CELESTRAK","updated_at":"2026-05-25T13:38:20.316122Z"}}}